Location: Bullfrog
(37.5121°N, 110.7330°W)
Time: 23:06:55
(UTC-07:00)

ISS - Pass Details

Date: 24 January 2026
Orbit: 414 x 429 km, 51.6° (Epoch: 8 February)

Event Time Altitude Azimuth Distance (km) Brightness Sun altitude
Rises 19:16:45 0° 320° (NW) 2,364 0.5 -19.5°
Reaches altitude 10° 19:19:20 10° 340° (NNW) 1,502 -0.8 -20.0°
Enters shadow 19:20:11 14° 353° (N) 1,288 -1.3 -20.2°
